Header for Extended Forecast Station List Page

Search by: ID | Name | Date | Parm | Value | Avg | % Avg
Sort by: ID | Name | Date | Parm | Value | Avg | % Avg

Enter search or view all records.

Click on id for station plot
#IDNameDateParmValueAvg% Avg
0HWRI1BIG LOST-AT HOWELL RANCH NEAR CHILLY09-15-2014DISCHARGE (KAF)162467
1MACI1BIG LOST-MACKAY RESERVOIR NEAR MACKAY09-15-2014INFLOW (KAF)289299
2HALI1BIG WOOD-AT HAILEY09-15-2014DISCHARGE (KAF)294368
3MAGI1BIG WOOD-MAGIC DAM09-15-2014INFLOW (KAF)132747
4BITM8BITTERROOT-NEAR MISSOULA09-15-2014DISCHARGE (KAF)17623375
5BONM8BLACKFOOT-NEAR BONNER09-15-2014DISCHARGE (KAF)13414394
6BIGI1BOISE-AT GLENWOOD BRIDGE09-15-2014DISCHARGE (KAF)5954109
7LUCI1BOISE-LUCKY PEAK DAM09-15-2014INFLOW (KAF)45MM
8PARI1BOISE-NEAR PARMA09-15-2014DISCHARGE (KAF)19121987
9HOTI1BRUNEAU-NEAR HOT SPRINGS09-15-2014DISCHARGE (KAF)242499
10BULO3BULLY CREEK-BULLY CREEK DAM09-15-2014INFLOW (KAF)1184
11BUDW1BUMPING-BUMPING LAKE DAM09-15-2014INFLOW (KAF)263087
12CHDW1CHELAN-LAKE CHELAN DAM09-15-2014INFLOW (KAF)14515792
13ABOM8CLARK FORK-ABOVE MISSOULA09-15-2014DISCHARGE (KAF)34136095
14DLGM8CLARK FORK-AT DEER LODGE09-15-2014DISCHARGE (KAF)596295
15SRGM8CLARK FORK-AT ST REGIS09-15-2014DISCHARGE (KAF)68177388
16BELM8CLARK FORK-BELOW MISSOULA09-15-2014DISCHARGE (KAF)51460086
17CABI1CLARK FORK-CABINET GORGE DAM09-15-2014INFLOW (KAF)2819340183
18NOXM8CLARK FORK-NOXON RAPIDS DAM09-15-2014INFLOW (KAF)2573327579
19DRMM8CLARK FORK-NR DRUMMOND09-15-2014DISCHARGE (KAF)142MM
20CLUW1CLE ELUM-CLE ELUM LAKE09-15-2014INFLOW (KAF)9489106
21ORFI1CLEARWATER-AT OROFINO09-15-2014DISCHARGE (KAF)39755372
22SPDI1CLEARWATER-AT SPALDING09-15-2014DISCHARGE (KAF)897133667
23COEI1COEUR D ALENE-COEUR D ALENE LAKE09-15-2014INFLOW (KAF)26843961
24CIBW1COLUMBIA-AT INTL BOUNDARY09-15-2014DISCHARGE (KAF)17451MM
25BONO3COLUMBIA-BONNEVILLE DAM09-15-2014INFLOW (KAF)26082MM
26CHJW1COLUMBIA-CHIEF JOSEPH DAM09-15-2014INFLOW (KAF)178111961391
27GCDW1COLUMBIA-GRAND COULEE DAM09-15-2014INFLOW (KAF)1822217195106
28JDAO3COLUMBIA-JOHN DAY DAM09-15-2014INFLOW (KAF)247982791289
29MCDW1COLUMBIA-MCNARY DAM09-15-2014INFLOW (KAF)239992726188
30PRWW1COLUMBIA-PRIEST RAPIDS DAM09-15-2014INFLOW (KAF)188271906899
31RRHW1COLUMBIA-ROCKY REACH DAM09-15-2014INFLOW (KAF)185382042191
32TDAO3COLUMBIA-THE DALLES DAM09-15-2014INFLOW (KAF)255213039884
33WANW1COLUMBIA-WANAPUM DAM09-15-2014INFLOW (KAF)1882718773100
34WELW1COLUMBIA-WELLS DAM09-15-2014INFLOW (KAF)180751993291
35DEDI1DEADWOOD-NEAR LOWMAN09-15-2014INFLOW (KAF)171893
36MODO3DESCHUTES-AT MOODY NR BIGGS09-15-2014DISCHARGE (KAF)1223124398
37ARDW1ENTIAT-NEAR ARDENVOIR09-15-2014DISCHARGE (KAF)222299
38CHEI1FALLS-NEAR CHESTER09-15-2014DISCHARGE (KAF)140106132
39CFMM8FLATHEAD-AT COLUMBIA FALLS09-15-2014DISCHARGE (KAF)907122174
40KERM8FLATHEAD-KERR DAM09-15-2014INFLOW (KAF)1041148170
41TRYO3GRANDE RONDE-TROY09-15-2014DISCHARGE (KAF)16523670
42REXI1HENRYS FORK-AT REXBURG09-15-2014DISCHARGE (KAF)40842197
43ANTI1HENRYS FORK-AT ST. ANTHONY09-15-2014DISCHARGE (KAF)30533292
44IPDI1HENRYS FORK-ISLAND PARK DAM09-15-2014INFLOW (KAF)11712395
45HODO3HOOD-NEAR TUCKER BRIDGE09-15-2014DISCHARGE (KAF)191167114
46SERO3JOHN DAY-AT SERVICE CK09-15-2014DISCHARGE (KAF)8911975
47KADW1KACHESS-KACHESS DAM09-15-2014INFLOW (KAF)3735105
48LAUW1KETTLE-AT LAURIER09-15-2014DISCHARGE (KAF)9212673
49PITW1KLICKITAT-NEAR PITT09-15-2014DISCHARGE (KAF)19521691
50BFEI1KOOTENAI-AT BONNERS FERRY09-15-2014STAGE (FT)MMM
51LEOI1KOOTENAI-AT LEONIA09-15-2014DISCHARGE (KAF)27691740159
52LYDM8KOOTENAI-LIBBY DAM09-15-2014INFLOW (KAF)932105788
53LWRI1LITTLE WOOD-LITTLE WOOD DAM09-15-2014INFLOW (KAF)51537
54BERO3MALHEUR-AGENCY VALLEY DAM09-15-2014INFLOW (KAF)111292
55VALO3MALHEUR-NEAR VALE09-15-2014DISCHARGE (KAF)112443
56WRMO3MALHEUR-WARM SPRINGS DAM09-15-2014INFLOW (KAF)101283
57MYKO3MCKAY CREEK-NEAR PILOT ROCK09-15-2014DISCHARGE (KAF)8896
58PATW1METHOW-NEAR PATEROS09-15-2014DISCHARGE (KAF)8610186
59WGCM8MF FLATHEAD-NEAR WEST GLACIER09-15-2014DISCHARGE (KAF)15618286
60CLFW1NACHES-NEAR CLIFFDEL09-15-2014DISCHARGE (KAF)739082
61NACW1NACHES-NEAR NACHES09-15-2014DISCHARGE (KAF)18174243
62DWRI1NF CLEARWATER-DWORSHAK DAM09-15-2014INFLOW (KAF)32441578
63FCFM8NF FLATHEAD-NEAR COLUMBIA FALLS09-15-2014DISCHARGE (KAF)19621292
64MONO3NF JOHN DAY-AT MONUMENT09-15-2014DISCHARGE (KAF)446073
65CSDI1NF PAYETTE-CASCADE DAM09-15-2014INFLOW (KAF)758885
66TONW1OKANOGAN-NEAR TONASKET09-15-2014DISCHARGE (KAF)18027566
67OWYO3OWYHEE-BELOW OWYHEE DAM09-15-2014INFLOW (KAF)356454
68EMMI1PAYETTE-NEAR EMMETT09-15-2014DISCHARGE (KAF)24735270
69ALFW1PEND OREILLE-ALBENI FALLS DAM09-15-2014INFLOW (KAF)2918390375
70HOPI1PEND OREILLE-PEND OREILLE LAKE NR HOPE09-15-2014LAKE ELEVATION (FT)MMM
71PIHI1PORTNEUF-AT POCATELLO09-15-2014DISCHARGE (KAF)405277
72PRTI1PRIEST-NEAR PRIEST RIVER09-15-2014DISCHARGE (KAF)21321499
73RCCM8ROCK CREEK-NEAR CLINTON09-15-2014DISCHARGE (KAF)515495
74WHBI1SALMON-AT WHITEBIRD09-15-2014DISCHARGE (KAF)970110188
75ARAI1SF BOISE-ANDERSON RANCH DAM09-15-2014INFLOW (KAF)7170101
76HHWM8SF FLATHEAD-HUNGRY HORSE DAM09-15-2014INFLOW (KAF)16623969
77PLDI1SF SNAKE-PALISADES DAM09-15-2014INFLOW (KAF)760745102
78SIFI1SNAKE-AB EAGLE ROCK NR IDAHO FALLS09-15-2014DISCHARGE (KAF)864862100
79AFRI1SNAKE-AMERICAN FALLS RESERVOIR09-15-2014INFLOW (KAF)1358138798
80SNAI1SNAKE-AT BLACKFOOT09-15-2014DISCHARGE (KAF)691659105
81MILI1SNAKE-AT MILNER09-15-2014DISCHARGE (KAF)10237727
82WEII1SNAKE-AT WEISER09-15-2014DISCHARGE (KAF)2445346071
83SWAI1SNAKE-BELOW SWAN FALLS09-15-2014DISCHARGE (KAF)1960241881
84BRNI1SNAKE-BROWNLEE DAM09-15-2014INFLOW (KAF)2616352274
85IHDW1SNAKE-ICE HARBOR DAM09-15-2014INFLOW (KAF)4429671366
86JLKW4SNAKE-JACKSON LAKE AT DAM09-15-2014INFLOW (KAF)118112105
87LGSW1SNAKE-LITTLE GOOSE DAM09-15-2014INFLOW (KAF)4446676066
88LGDW1SNAKE-LOWER GRANITE DAM09-15-2014INFLOW (KAF)4500672367
89LMNW1SNAKE-LOWER MONUMENTAL DAM09-15-2014INFLOW (KAF)4432678165
90ALPW4SNAKE-NEAR ALPINE09-15-2014DISCHARGE (KAF)499481104
91ANAW1SNAKE-NEAR ANATONE09-15-2014DISCHARGE (KAF)3603522869
92BFTI1SNAKE-NEAR BLACKFOOT09-15-2014DISCHARGE (KAF)709707100
93HEII1SNAKE-NEAR HEISE09-15-2014DISCHARGE (KAF)76378597
94JKSW4SNAKE-NEAR JACKSON09-15-2014DISCHARGE (KAF)394386102
95SHYI1SNAKE-NEAR SHELLEY09-15-2014DISCHARGE (KAF)852796107
96LLKW1SPOKANE-AT LONGLAKE09-15-2014INFLOW (KAF)61788670
97SPOW1SPOKANE-AT SPOKANE09-15-2014DISCHARGE (KAF)445MM
98SJMI1ST JOE-AT ST MARIES09-15-2014STAGE (FT)MMM
99SATI1ST MARIES-NEAR SANTA09-15-2014DISCHARGE (KAF)172376
100STRM8ST. REGIS-NEAR ST. REGIS09-15-2014DISCHARGE (KAF)273382
101TNAW1TEANAWAY-BELOW FORKS09-15-2014DISCHARGE (KAF)162662
102TEAI1TETON-NEAR ST. ANTHONY09-15-2014DISCHARGE (KAF)11912099
103RILW1TIETON-RIMROCK LAKE NEAR RIMROCK09-15-2014INFLOW (KAF)506183
104PDTO3UMATILLA-AT PENDLETON09-15-2014DISCHARGE (KAF)394391
105GIBO3UMATILLA-NEAR GIBBON09-15-2014DISCHARGE (KAF)192283
106UMAO3UMATILLA-NEAR UMATILLA09-15-2014DISCHARGE (KAF)6243146
107TCHW1WALLA WALLA-NEAR TOUCHET09-15-2014DISCHARGE (KAF)616299
108WSRI1WEISER-NEAR WEISER09-15-2014DISCHARGE (KAF)385372
109PESW1WENATCHEE-AT PESHASTIN09-15-2014DISCHARGE (KAF)291265110
110UNDW1WHITE SALMON-NEAR UNDERWOOD09-15-2014DISCHARGE (KAF)18218897
111RIDI1WILLOW CREEK-RIRIE DAM09-15-2014INFLOW (KAF)5863
112EASW1YAKIMA-AT EASTON09-15-2014DISCHARGE (KAF)8858152
113KIOW1YAKIMA-AT KIONA09-15-2014DISCHARGE (KAF)719587122
114UMTW1YAKIMA-AT UMTANUM09-15-2014DISCHARGE (KAF)26427496
115KEDW1YAKIMA-KEECHELUS LAKE09-15-2014INFLOW (KAF)4944112
116PARW1YAKIMA-NEAR PARKER09-15-2014DISCHARGE (KAF)424330128